FW0298 Weather Reports


time (UTC)temp
C
wind
direction
speed
KPH
gust
KPH
rain 1hr
cm
rain 24hr
cm
rain mn
cm
humidity
%
barometer
mb
20260503190116 10 223 20.9 33.8 0.00 0.00 0.00 75 1015.2
20260503185623 10 251 20.9 38.6 0.00 0.00 0.00 74 1015.1
20260503185117 11 247 25.7 38.6 0.00 0.00 0.00 72 1014.9
20260503184626 11 251 22.5 38.6 0.00 0.00 0.00 69 1014.7
20260503184119 11 242 27.4 45.1 0.00 0.00 0.00 65 1014.6
20260503183634 12 270 33.8 45.1 0.00 0.00 0.00 63 1014.5
20260503183143 13 267 25.7 48.3 0.00 0.00 0.00 59 1014.5
20260503182617 13 235 24.1 41.8 0.00 0.00 0.00 54 1014.3
20260503182132 14 230 27.4 40.2 0.00 0.00 0.00 54 1014.0
20260503181641 14 257 24.1 37.0 0.00 0.00 0.00 54 1014.1
20260503181115 15 236 22.5 33.8 0.00 0.00 0.00 52 1014.0
20260503180650 15 247 20.9 29.0 0.00 0.00 0.00 53 1014.2
20260503180117 15 237 19.3 33.8 0.00 0.00 0.00 52 1014.3
20260503175610 15 236 22.5 33.8 0.00 0.00 0.00 50 1014.2
20260503175125 15 235 24.1 32.2 0.00 0.00 0.00 51 1014.4
20260503174614 15 230 19.3 33.8 0.00 0.00 0.00 51 1014.5
20260503174124 15 245 25.7 33.8 0.00 0.00 0.00 49 1014.5
20260503173611 15 237 24.1 33.8 0.00 0.00 0.00 51 1014.6
20260503173126 15 219 19.3 35.4 0.00 0.00 0.00 52 1014.7
20260503172614 15 243 24.1 35.4 0.00 0.00 0.00 49 1014.7
20260503172130 15 238 20.9 38.6 0.00 0.00 0.00 51 1014.8
20260503171625 15 230 24.1 38.6 0.00 0.00 0.00 51 1014.9
20260503171111 15 232 24.1 45.1 0.00 0.00 0.00 49 1014.9
20260503170626 15 244 20.9 45.1 0.00 0.00 0.00 52 1015.0
20260503170113 15 218 22.5 33.8 0.00 0.00 0.00 52 1015.1
20260503160124 14 217 24.1 32.2 0.00 0.00 0.00 48 1015.3
20260503150625 13 237 22.5 29.0 0.00 0.00 0.00 51 1016.0
20260503150119 13 244 17.7 33.8 0.00 0.00 0.00 53 1016.2
20260503140146 11 244 19.3 29.0 0.00 0.00 0.00 55 1016.4
20260503131120 10 220 17.7 25.7 0.00 0.00 0.00 58 1016.4
20260503130634 10 228 16.1 24.1 0.00 0.00 0.00 59 1016.4
20260503130121 9 240 16.1 25.7 0.00 0.00 0.00 59 1016.3
20260503120118 7 235 12.9 20.9 0.00 0.00 0.00 66 1016.4
20260503110630 5 209 8.0 14.5 0.00 0.00 0.00 70 1016.2
20260503110124 5 236 11.3 14.5 0.00 0.00 0.00 69 1016.1
20260503100125 5 243 8.0 12.9 0.00 0.00 0.00 70 1015.9
20260503090128 5 223 8.0 16.1 0.00 0.00 0.00 71 1016.2
20260503081615 5 232 6.4 11.3 0.00 0.00 0.00 71 1016.1
20260503081153 5 240 6.4 12.9 0.00 0.00 0.00 71 1016.1
20260503080620 5 228 8.0 12.9 0.00 0.00 0.00 71 1016.3
20260503080136 5 230 8.0 12.9 0.00 0.00 0.00 71 1016.2
20260503072638 5 248 6.4 9.7 0.00 0.00 0.00 71 1016.2
20260503072111 4 252 6.4 9.7 0.00 0.00 0.00 73 1016.3
20260503071618 4 221 4.8 8.0 0.00 0.00 0.00 74 1016.3
20260503071111 4 224 6.4 8.0 0.00 0.00 0.00 74 1016.3
20260503070627 4 232 4.8 8.0 0.00 0.00 0.00 75 1016.3
20260503070113 4 229 4.8 8.0 0.00 0.00 0.00 75 1016.4
20260503060123 3 218 3.2 4.8 0.00 0.00 0.00 78 1016.8
20260503054622 3 217 0.0 0.0 0.00 0.00 0.00 78 1016.8
20260503054109 3 218 0.0 3.2 0.00 0.00 0.00 78 1016.8
20260503053624 3 217 0.0 3.2 0.00 0.00 0.00 80 1016.9
20260503053112 2 230 0.0 0.0 0.00 0.00 0.00 83 1016.9
20260503052629 2 163 0.0 1.6 0.00 0.00 0.00 84 1017.0
20260503052141 2 163 0.0 1.6 0.00 0.00 0.00 84 1017.1
20260503051625 2 288 0.0 0.0 0.00 0.00 0.00 84 1017.0
20260503051141 2 288 0.0 0.0 0.00 0.00 0.00 83 1017.0
20260503050636 2 288 0.0 0.0 0.00 0.00 0.00 84 1017.0
20260503050124 2 288 0.0 0.0 0.00 0.00 0.00 84 1017.2
20260503045618 2 288 0.0 0.0 0.00 0.00 0.00 83 1017.1
20260503045133 2 288 0.0 0.0 0.00 0.00 0.00 84 1017.2
20260503044621 2 295 0.0 0.0 0.00 0.00 0.00 86 1017.2
20260503044110 2 337 0.0 0.0 0.00 0.00 0.00 86 1017.1
20260503043647 2 337 0.0 0.0 0.00 0.00 0.00 86 1017.2
20260503043120 2 337 0.0 0.0 0.00 0.00 0.00 87 1017.2
20260503042635 2 337 0.0 0.0 0.00 0.00 0.00 86 1017.1
20260503042123 2 337 0.0 0.0 0.00 0.00 0.00 87 1017.2
20260503041616 2 337 0.0 0.0 0.00 0.00 0.00 88 1017.2
20260503041153 2 337 0.0 0.0 0.00 0.00 0.00 88 1017.2
20260503040620 2 337 0.0 0.0 0.00 0.00 0.00 86 1017.2
20260503035611 2 337 0.0 0.0 0.00 0.00 0.00 88 1017.3
20260503035127 2 319 0.0 0.0 0.00 0.00 0.00 87 1017.3
20260503034641 2 319 0.0 0.0 0.00 0.00 0.00 85 1017.2
20260503034136 2 319 0.0 0.0 0.00 0.00 0.00 86 1017.2
20260503033624 3 319 0.0 0.0 0.00 0.00 0.00 85 1017.2
20260503033118 3 319 0.0 0.0 0.00 0.00 0.00 85 1017.2
20260503032626 3 319 0.0 0.0 0.00 0.00 0.00 86 1017.3
20260503032120 3 319 0.0 0.0 0.00 0.00 0.00 85 1017.2
20260503031629 3 319 0.0 0.0 0.00 0.00 0.00 85 1017.2
20260503031122 3 319 0.0 0.0 0.00 0.00 0.00 85 1017.2
20260503030610 3 319 0.0 0.0 0.00 0.00 0.00 86 1017.2
20260503030126 3 319 0.0 0.0 0.00 0.00 0.00 86 1017.3
20260503025614 3 319 0.0 0.0 0.00 0.00 0.00 87 1017.3
20260503025130 3 319 0.0 0.0 0.00 0.00 0.00 87 1017.4
20260503024623 3 319 0.0 0.0 0.00 0.00 0.00 85 1017.4
20260503024112 3 319 0.0 0.0 0.00 0.00 0.00 83 1017.3
20260503023628 3 319 0.0 0.0 0.00 0.00 0.00 81 1017.3
20260503023137 3 319 0.0 0.0 0.00 0.00 0.00 81 1017.3
20260503022610 4 319 0.0 0.0 0.00 0.00 0.00 81 1017.3
20260503022119 4 319 0.0 0.0 0.00 0.00 0.00 83 1017.2
20260503021613 4 319 0.0 0.0 0.00 0.00 0.00 82 1017.3
20260503021117 4 319 0.0 0.0 0.00 0.00 0.00 80 1017.3
20260503020633 4 319 0.0 0.0 0.00 0.00 0.00 80 1017.3
20260503020127 4 319 0.0 0.0 0.00 0.00 0.00 81 1017.3
20260503015614 4 319 0.0 0.0 0.00 0.00 0.00 77 1017.3
20260503015130 5 319 0.0 0.0 0.00 0.00 0.00 73 1017.1
20260503014624 5 319 0.0 0.0 0.00 0.00 0.00 72 1017.2
20260503014111 5 319 0.0 0.0 0.00 0.00 0.00 65 1017.2
20260503013627 6 319 0.0 0.0 0.00 0.00 0.00 61 1017.2
20260503013114 5 319 0.0 0.0 0.00 0.00 0.00 64 1017.1
20260503012610 6 319 0.0 0.0 0.00 0.00 0.00 64 1017.1
20260503012119 6 319 0.0 0.0 0.00 0.00 0.00 62 1017.2
20260503011613 6 319 0.0 0.0 0.00 0.00 0.00 61 1017.0
20260503011150 7 319 0.0 0.0 0.00 0.00 0.00 62 1017.2
20260503010616 7 319 0.0 0.0 0.00 0.00 0.00 54 1017.1
20260503010110 7 319 0.0 0.0 0.00 0.00 0.00 50 1017.2
20260503005619 7 319 0.0 0.0 0.00 0.00 0.00 50 1017.1
20260503005114 8 319 0.0 0.0 0.00 0.00 0.00 49 1017.1
20260503004630 8 319 0.0 0.0 0.00 0.00 0.00 48 1017.1
20260503004116 8 319 0.0 0.0 0.00 0.00 0.00 48 1017.0
20260503003632 8 318 0.0 3.2 0.00 0.00 0.00 47 1016.9
20260503003119 9 318 0.0 3.2 0.00 0.00 0.00 44 1017.1
20260503002634 9 321 1.6 6.4 0.00 0.00 0.00 44 1017.0
20260503002147 10 319 4.8 8.0 0.00 0.00 0.00 44 1017.0
20260503001612 10 322 3.2 11.3 0.00 0.00 0.00 41 1017.0
20260503001127 10 347 3.2 14.5 0.00 0.00 0.00 41 1016.9
20260503000615 10 319 6.4 19.3 0.00 0.00 0.00 42 1016.8
20260503000129 10 320 9.7 19.3 0.00 0.00 0.00 41 1016.9
20260502235617 10 314 8.0 12.9 0.00 0.00 0.00 41 1016.8
20260502235110 10 326 4.8 12.9 0.00 0.00 0.00 42 1016.8
20260502234619 11 319 4.8 19.3 0.00 0.00 0.00 40 1016.8
20260502234113 11 309 8.0 19.3 0.00 0.00 0.00 38 1016.8
20260502233629 11 293 6.4 12.9 0.00 0.00 0.00 40 1016.9
20260502233124 11 308 9.7 20.9 0.00 0.00 0.00 40 1016.8
20260502232612 11 322 11.3 20.9 0.00 0.00 0.00 40 1016.8
20260502232127 11 330 9.7 17.7 0.00 0.00 0.00 38 1016.8
20260502231614 11 322 11.3 17.7 0.00 0.00 0.00 41 1016.9
20260502231129 11 338 6.4 17.7 0.00 0.00 0.00 41 1016.9
20260502230616 11 313 11.3 20.9 0.00 0.00 0.00 38 1016.9
20260502230109 11 306 12.9 20.9 0.00 0.00 0.00 39 1016.9
20260502225646 11 338 9.7 19.3 0.00 0.00 0.00 37 1016.9
20260502225142 11 299 11.3 24.1 0.00 0.00 0.00 34 1016.9
20260502224625 11 313 14.5 24.1 0.00 0.00 0.00 36 1016.9
20260502224141 11 320 9.7 17.7 0.00 0.00 0.00 37 1016.8
20260502223615 11 302 9.7 22.5 0.00 0.00 0.00 39 1016.8
20260502223125 11 308 14.5 22.5 0.00 0.00 0.00 36 1016.8
20260502222619 11 339 14.5 19.3 0.00 0.00 0.00 39 1016.9
20260502222129 11 321 11.3 19.3 0.00 0.00 0.00 40 1016.9
20260502221622 11 287 12.9 22.5 0.00 0.00 0.00 38 1016.8
20260502221110 11 285 12.9 19.3 0.00 0.00 0.00 41 1016.8
20260502220625 11 294 9.7 17.7 0.00 0.00 0.00 41 1016.8
20260502220114 11 272 6.4 19.3 0.00 0.00 0.00 42 1016.9
20260502215629 11 348 11.3 20.9 0.00 0.00 0.00 40 1016.8
20260502215124 11 348 11.3 17.7 0.00 0.00 0.00 44 1016.8
20260502214611 11 306 11.3 17.7 0.00 0.00 0.00 40 1016.8
20260502214126 11 327 11.3 17.7 0.00 0.00 0.00 41 1016.9
20260502213635 11 315 11.3 17.7 0.00 0.00 0.00 39 1016.7
20260502213129 11 304 6.4 16.1 0.00 0.00 0.00 44 1016.8
20260502212644 10 287 9.7 17.7 0.00 0.00 0.00 41 1016.8
20260502212110 10 256 8.0 17.7 0.00 0.00 0.00 41 1016.8
20260502211625 11 327 6.4 25.7 0.00 0.00 0.00 41 1016.7
20260502211142 11 295 12.9 25.7 0.00 0.00 0.00 41 1016.8
20260502210630 12 318 6.4 20.9 0.00 0.00 0.00 43 1016.8
20260502210142 11 275 4.8 24.1 0.00 0.00 0.00 41 1016.7
20260502205635 11 293 14.5 24.1 0.00 0.00 0.00 42 1016.7
20260502205121 10 323 11.3 19.3 0.00 0.00 0.00 42 1016.8
20260502204615 10 289 4.8 16.1 0.00 0.00 0.00 40 1016.7
20260502204126 11 358 8.0 16.1 0.00 0.00 0.00 42 1017.0
20260502203620 10 320 9.7 19.3 0.00 0.00 0.00 44 1017.0
20260502203129 10 320 9.7 20.9 0.00 0.00 0.00 44 1017.0
20260502202622 10 286 12.9 22.5 0.00 0.00 0.00 42 1017.0
20260502202138 10 316 12.9 29.0 0.00 0.00 0.00 43 1017.0
20260502201654 11 346 12.9 29.0 0.00 0.00 0.00 41 1017.2
20260502201119 11 326 14.5 20.9 0.00 0.00 0.00 45 1017.2
20260502200634 11 292 14.5 19.3 0.00 0.00 0.00 43 1017.3
20260502200122 11 330 11.3 19.3 0.00 0.00 0.00 43 1017.4
20260502195609 11 276 12.9 27.4 0.00 0.00 0.00 44 1017.3
20260502195124 10 45 11.3 17.7 0.00 0.00 0.00 47 1017.4
20260502194618 10 225 6.4 17.7 0.00 0.00 0.00 43 1017.7
20260502194126 10 360 12.9 17.7 0.00 0.00 0.00 48 1017.6
20260502193618 10 325 6.4 17.7 0.00 0.00 0.00 45 1017.7
20260502193134 10 323 6.4 19.3 0.00 0.00 0.00 48 1017.7
20260502192620 10 308 6.4 22.5 0.00 0.00 0.00 46 1017.9
20260502192137 10 347 11.3 22.5 0.00 0.00 0.00 50 1017.9
20260502191623 10 48 4.8 19.3 0.00 0.00 0.00 51 1017.9
20260502191139 10 52 9.7 20.9 0.00 0.00 0.00 50 1018.0
20260502190652 10 17 11.3 24.1 0.00 0.00 0.00 50 1018.2